FW6589 Weather Reports


time (UTC)temp
C
wind
direction
speed
KPH
gust
KPH
rain 1hr
cm
rain 24hr
cm
rain mn
cm
humidity
%
barometer
mb
20260906083057 18 0 0.0 0.0 0.00 0.00 0.00 96 1018.2
20260906081604 18 0 0.0 0.0 0.00 0.00 0.00 96 1018.2
20260906080100 18 0 0.0 0.0 0.00 0.00 0.00 96 1018.1
20260906074606 18 0 0.0 0.0 0.00 0.00 0.00 96 1018.3
20260906073107 18 0 0.0 0.0 0.00 0.00 0.00 96 1018.4
20260906071600 17 0 0.0 0.0 0.00 0.00 0.00 96 1018.4
20260906070125 18 0 0.0 0.0 0.00 0.00 0.00 95 1018.5
20260906064556 18 0 0.0 0.0 0.00 0.00 0.00 95 1018.7
20260906063059 18 0 0.0 0.0 0.00 0.00 0.00 95 1018.8
20260906061635 19 0 0.0 0.0 0.00 0.00 0.00 94 1018.9
20260906060100 20 0 0.0 0.0 0.00 0.00 0.00 94 1018.8
20260906054557 20 0 0.0 0.0 0.00 0.00 0.00 94 1018.7
20260906053058 20 0 0.0 0.0 0.00 0.00 0.00 94 1018.7
20260906051558 20 0 0.0 0.0 0.00 0.00 0.00 94 1018.6
20260906050110 21 0 0.0 0.0 0.00 0.00 0.00 94 1018.4
20260906044553 21 0 0.0 0.0 0.00 0.00 0.00 93 1018.2
20260906043109 21 0 0.0 4.8 0.00 0.00 0.00 93 1018.2
20260906041600 21 0 0.0 4.8 0.00 0.00 0.00 94 1017.9
20260906040115 21 0 0.0 1.6 0.00 0.00 0.00 94 1017.7
20260906034553 21 0 0.0 1.6 0.00 0.00 0.00 94 1017.6
20260906033102 21 0 0.0 0.0 0.00 0.00 0.00 95 1017.2
20260906031607 21 0 0.0 0.0 0.00 0.00 0.00 95 1017.2
20260906030107 21 0 0.0 0.0 0.00 0.00 0.00 95 1017.0
20260906024551 21 0 0.0 0.0 0.00 0.00 0.00 94 1016.8
20260906023130 21 0 0.0 0.0 0.00 0.00 0.00 94 1016.4
20260906021558 21 0 0.0 0.0 0.00 0.00 0.00 94 1016.4
20260906020056 21 0 0.0 0.0 0.00 0.00 0.00 93 1016.1
20260906014623 22 0 0.0 0.0 0.00 0.00 0.00 93 1016.0
20260906013101 22 0 0.0 0.0 0.00 0.00 0.00 92 1015.8
20260906011601 22 0 0.0 0.0 0.00 0.00 0.00 91 1015.9
20260906010111 22 0 0.0 0.0 0.00 0.00 0.00 91 1016.0
20260906004609 23 0 0.0 0.0 0.00 0.00 0.00 90 1015.9
20260906003059 23 0 0.0 0.0 0.00 0.00 0.00 89 1015.9
20260906001557 24 0 0.0 0.0 0.00 0.00 0.00 88 1015.9
20260906000104 25 0 0.0 0.0 0.00 0.00 0.00 87 1015.9
20260905234556 25 0 0.0 4.8 0.00 0.00 0.00 86 1016.0
20260905233059 26 0 0.0 3.2 0.00 0.00 0.00 85 1015.9
20260905231556 26 0 0.0 1.6 0.00 0.00 0.00 86 1015.9
20260905230108 26 260 1.6 3.2 0.00 0.00 0.00 85 1016.1
20260905224607 26 237 0.0 6.4 0.00 0.00 0.00 84 1016.1
20260905223057 26 232 3.2 9.7 0.00 0.00 0.00 85 1016.2
20260905221553 26 0 0.0 8.0 0.00 0.00 0.00 85 1016.0
20260905220112 25 0 0.0 6.4 0.00 0.00 0.00 86 1016.1
20260905214557 26 258 1.6 9.7 0.00 0.00 0.00 84 1016.1
20260905213054 26 290 1.6 6.4 0.00 0.00 0.00 86 1015.6
20260905211604 26 259 3.2 9.7 0.00 0.00 0.00 85 1015.7
20260905210058 26 246 1.6 9.7 0.00 0.00 0.00 86 1015.8
20260905204555 27 277 1.6 9.7 0.00 0.00 0.00 87 1015.9
20260905203059 26 288 1.6 8.0 0.00 0.00 0.00 86 1015.9
20260905201600 26 257 1.6 6.4 0.00 0.00 0.00 86 1016.1
20260905200100 27 276 1.6 9.7 0.00 0.00 0.00 85 1016.0
20260905194554 26 245 0.0 9.7 0.00 0.00 0.00 87 1016.0
20260905193101 26 224 1.6 8.0 0.00 0.00 0.00 86 1016.0
20260905191603 27 244 1.6 6.4 0.00 0.00 0.00 85 1016.0
20260905190114 27 255 1.6 4.8 0.00 0.00 0.00 86 1016.0
20260905184603 27 258 0.0 6.4 0.00 0.00 0.00 87 1016.0
20260905183124 27 272 3.2 8.0 0.00 0.00 0.00 86 1016.1
20260905181604 27 297 3.2 11.3 0.00 0.00 0.00 87 1016.1
20260905180104 26 267 1.6 11.3 0.00 0.00 0.00 88 1016.2
20260905174602 26 236 1.6 8.0 0.00 0.00 0.00 87 1016.3
20260905173100 26 280 3.2 9.7 0.00 0.00 0.00 88 1016.6
20260905171604 27 266 3.2 8.0 0.00 0.00 0.00 86 1016.6
20260905170058 26 280 3.2 8.0 0.00 0.00 0.00 89 1016.4
20260905164606 25 258 1.6 12.9 0.00 0.10 0.00 90 1016.6
20260905163101 25 274 3.2 9.7 0.00 0.10 0.00 90 1016.6
20260905161558 25 273 1.6 6.4 0.00 0.10 0.00 92 1016.5
20260905160111 25 270 1.6 11.3 0.00 0.10 0.00 92 1016.6
20260905154602 25 260 1.6 8.0 0.00 0.10 0.00 92 1016.5
20260905153111 25 278 1.6 6.4 0.00 0.10 0.00 92 1016.5
20260905151600 25 0 0.0 6.4 0.00 0.10 0.00 92 1016.4
20260905150055 25 267 0.0 9.7 0.00 0.10 0.00 92 1016.1
20260905144602 26 0 0.0 3.2 0.00 0.10 0.00 93 1015.9
20260905143100 25 260 1.6 6.4 0.00 0.10 0.00 94 1015.5
20260905141559 25 0 0.0 0.0 0.00 0.10 0.00 96 1015.3
20260905140107 24 0 0.0 0.0 0.00 0.10 0.00 97 1014.9
20260905134552 24 0 0.0 0.0 0.00 0.10 0.00 98 1014.9
20260905133106 23 0 0.0 0.0 0.00 0.10 0.00 99 1014.9
20260905131608 23 0 0.0 0.0 0.00 0.10 0.00 99 1014.9
20260905130058 22 0 0.0 0.0 0.00 0.10 0.00 98 1015.0
20260905124559 22 0 0.0 0.0 0.00 0.10 0.00 98 1014.9
20260905123102 21 0 0.0 0.0 0.00 0.10 0.00 98 1015.0
20260905121557 21 0 0.0 0.0 0.00 0.10 0.00 98 1014.9
20260905120108 21 0 0.0 0.0 0.00 0.10 0.00 98 1014.4
20260905114554 20 0 0.0 0.0 0.00 0.10 0.00 97 1014.1
20260905113105 20 0 0.0 0.0 0.00 0.10 0.00 97 1013.9
20260905111612 20 0 0.0 0.0 0.00 0.10 0.00 97 1013.5
20260905110100 20 0 0.0 0.0 0.00 0.10 0.00 97 1013.5
20260905104558 21 0 0.0 0.0 0.00 0.10 0.00 97 1013.3
20260905103053 21 0 0.0 0.0 0.00 0.10 0.00 97 1013.1
20260905101605 21 0 0.0 0.0 0.00 0.10 0.00 97 1013.3
20260905100100 21 0 0.0 0.0 0.00 0.10 0.00 97 1013.3
20260905094555 21 0 0.0 0.0 0.00 0.10 0.00 97 1013.4
20260905093058 21 0 0.0 0.0 0.00 0.10 0.00 97 1013.5
20260905091555 21 0 0.0 0.0 0.00 0.10 0.00 97 1013.5
20260905084613 21 0 0.0 0.0 0.00 0.10 0.00 97 1013.7